Regional Weather Roundup
Issued by NWS

Home | Current Version | Previous Version | Graphics & Text | Print | Product List | Glossary On
Versions: 1 2 3 4 5 6 7 8 9 10 11 12 13 14 15 16 17 18 19 20 21 22 23 24 25 26 27 28 29 30 31 32 33 34 35 36 37 38 39 40 41 42 43 44 45 46 47 48 49 50
000
ASUS45 KBOU 150207
RWRCO

WEATHER ROUNDUP FOR COLORADO
NATIONAL WEATHER SERVICE DENVER/BOULDER CO
800 PM MDT SUN SEP 14 2014

NOTE: "FAIR" INDICATES FEW OR NO CLOUDS BELOW 12000 FEET WITH NO
SIGNIFICANT WEATHER AND/OR OBSTRUCTIONS TO VISIBILITY.

COZ001>005-013-030-031-150300-
...NORTHWEST COLORADO...

CITY           SKY/WX    TMP DP  RH WIND       PRES   REMARKS
CRAIG          MOCLDY    63  38  39 SW9       30.15R
HAYDEN         MOCLDY    66  30  26 W6        30.18R
MEEKER         PTCLDY    65  42  43 CALM      30.17R
MOUNT WERNER   NOT AVBL
STEAMBOAT SPGS MOCLDY    64  35  34 S3        30.20R
WALDEN         MOCLDY    59  32  36 SW7       30.28R
$$

COZ006>008-011-150300-
...WEST CENTRAL VALLEYS...

CITY           SKY/WX    TMP DP  RH WIND       PRES   REMARKS
GRAND JUNCTION CLEAR     69  40  34 NE5       30.03S
MONTROSE       PTCLDY    70  47  43 S3        30.14R
EAGLE          PTCLDY    70  36  28 CALM      30.20R
RIFLE          PTCLDY    73  36  25 W5        30.10R
DELTA          MOCLDY    78  38  23 NE3       30.08R
NUCLA          PTCLDY    75  36  23 CALM      30.17R
$$

COZ017>023-064>068-150300-
...SOUTHWEST COLORADO...

CITY           SKY/WX    TMP DP  RH WIND       PRES   REMARKS
DURANGO        CLEAR     73  35  25 W7        30.17S
CORTEZ         CLEAR     66  44  45 S3        30.13R
PAGOSA SPRINGS NOT AVBL
TELLURIDE      PTCLDY    61  37  41 CALM      30.38R
WOLF CREEK PAS MOCLDY    46  30  53 NE5       30.57S
$$

COZ009-010-012-014-032>034-037-058>063-150300-
...CENTRAL COLORADO...

CITY           SKY/WX    TMP DP  RH WIND       PRES   REMARKS
ASPEN          PTCLDY    58  39  49 S7        30.28R
BUENA VISTA    CLEAR     62  31  31 NW10      30.28R
COPPER MTN     CLOUDY    50  30  46 W13G22    30.59R
BERTHOUD PASS  FAIR      41  37  87 W20G31    30.60S
COTTONWOOD PAS CLEAR     59  23  25 N5        30.42R
GUNNISON       PTCLDY    63  34  34 N8        30.29R
KREMMLING      MOCLDY    61  32  33 SW5       30.25S
LEADVILLE      CLEAR     49  33  54 NE7       30.42S
MONARCH PASS   PTCLDY    48  28  46 W13       30.67R
SALIDA         CLEAR     66  30  26 W5        30.30R
SUNLIGHT       PTCLDY    50  34  53 CALM      30.50S
WILKERSON PASS NOT AVBL
$$

COZ069>075-150300-
...SAN LUIS VALLEY/SANGRE DE CRISTO MOUNTAINS...

CITY           SKY/WX    TMP DP  RH WIND       PRES   REMARKS
ALAMOSA        PTCLDY    66  38  35 NW10      30.23S
LA VETA PASS   NOT AVBL
SAGUACHE       NOT AVBL
$$

COZ035-036-038>040-150300-
...NORTHERN COLORADO FRONT RANGE...

CITY           SKY/WX    TMP DP  RH WIND       PRES   REMARKS
DENVER INTL AP MOCLDY    71  40  32 N9        30.09R
DMNS CITY PARK NOT AVBL
AURORA         MOCLDY    70  39  32 NE6       30.11R
FRONT RANGE AP MOCLDY    73  37  27 N16G28    30.10R
ERIE MUNI ARPT MOCLDY    68  42  38 N5        30.07R
BOULDER MUN AP MOCLDY    70  41  35 W5        30.07R
CENTENNIAL     MOCLDY    73  37  27 NE6       30.11R
BROOMFIELD     MOCLDY    77  30  18 W16       30.09R
FORT COLLINS   CLOUDY    70  43  37 SW7       30.06R
LONGMONT       CLOUDY    71  41  33 NW8       30.08R
$$

COZ041-046-047-076>085-087-088-150300-
...PIKES PEAK/PALMER DIVIDE AND SOUTHERN FOOTHILLS...

CITY           SKY/WX    TMP DP  RH WIND       PRES   REMARKS
COLO. SPRINGS  PTCLDY    74  28  18 CALM      30.14R
A. F. ACADEMY  MOCLDY    63  37  37 N9        30.16R
ELLICOTT       NOT AVBL
FALCON         PTCLDY    65  32  29 SW6       30.19R
FORT CARSON    PTCLDY    71  33  25 W6        30.10R
LIMON          MOCLDY    69  38  32 CALM      30.09R
MONUMENT HILL  MOCLDY    63  36  36 NE5       30.21R
TRINIDAD       PTCLDY    71  49  45 SW9       30.10R
$$

COZ042>045-048>051-090-091-150300-
...NORTHEAST COLORADO...

CITY           SKY/WX    TMP DP  RH WIND       PRES   REMARKS
GREELEY ARPT   CLOUDY    66  45  45 S6        30.04R
AKRON          CLOUDY    65  56  72 SE7       30.06R
BURLINGTON     CLEAR     68  51  54 S9        30.00R
WRAY           CLOUDY    66  59  77 E8        29.99S
STERLING       CLOUDY    66  54  63 S3        29.99S
HOLYOKE        CLOUDY    66  59  77 CALM      29.99R
FORT MORGAN    CLOUDY    66  48  52 SE16      30.04R
$$

COZ086-089-092>099-150300-
...SOUTHEAST COLORADO...

CITY           SKY/WX    TMP DP  RH WIND       PRES   REMARKS
PUEBLO         PTCLDY    71  37  28 E6        30.00R
LA JUNTA       CLEAR     74  43  32 SE7       29.98R
LAMAR          CLEAR     77  53  43 S14       29.95S
SPRINGFIELD      N/A     71  55  56 S17       30.06R
$$


USA.gov is the U.S. government's official web portal to all federal, state and local government web resources and services.